Location: American Canyon
(38.1966°N, 122.1514°W)
Time: 17:26:36
(UTC+00:00)

Meteor PRIRODA - Pass Details

Date: 29 October 2020
Orbit: 491 x 509 km, 97.6° (Epoch: 22 November)

Event Time Altitude Azimuth Distance (km) Brightness Sun altitude
Rises 13:11:37 0° 16° (NNE) 2,585 7.4 -16.3°
Reaches altitude 10° 13:13:43 10° 20° (NNE) 1,701 6.5 -15.9°
Maximum altitude 13:17:20 60° 101° (E) 575 4.2 -15.2°
Drops below altitude 10° 13:20:57 10° 181° (S) 1,698 6.4 -14.5°
Sets 13:23:02 0° 185° (S) 2,580 7.3 -14.1°
